Regional Weather Roundup
Issued by NWS Charleston, SC

Current Version | Previous Version | Text Only | Print | Product List | Glossary Off
Versions: 1 2 3 4 5 6 7 8 9 10 11 12 13 14 15 16 17 18 19 20 21 22 23 24 25 26 27 28 29 30 31 32 33 34 35 36 37 38 39 40 41 42 43 44 45 46 47 48 49 50

000
ASUS42 KCHS 192325
RWRCHS

REGIONAL WEATHER ROUNDUP
NATIONAL WEATHER SERVICE CHARLESTON SC
600 PM EST FRI DEC 19 2014

NOTE: "FAIR" INDICATES FEW OR NO CLOUDS BELOW 12,000 FEET WITH NO
SIGNIFICANT WEATHER AND/OR OBSTRUCTIONS TO VISIBILITY.

NOT ALL STATIONS ARE QUALITY CONTROLLED BY THE NATIONAL
WEATHER SERVICE. USE DATA WITH CAUTION...ESPECIALLY
DEWPOINT OBSERVATIONS.

SCZ027-030-031-034>040-042>050-200000-
...SOUTHEAST SOUTH CAROLINA...

CITY           SKY/WX    TMP DP  RH WIND       PRES   REMARKS
N CHARLESTON   MOCLDY    54  44  69 SE6       30.13R
WATERFRONT PRK   N/A     54 N/A N/A E6          N/A
MOUNT PLEASANT FAIR      48  46  93 CALM      30.13S
PINOPOLIS        N/A     57  46  67 CALM      30.05R
MONCKS CORNER  FAIR      55  45  67 CALM      30.13R
SUMMERVILLE    NOT AVBL
BEAUFORT MCAS  CLOUDY    55  45  68 E3        30.11S
BEAUFORT ARPT  FAIR      54  48  82 E5        30.11S
HILTON HEAD IS MOCLDY    54  48  82 CALM      30.12R
WALTERBORO     PTCLDY    55  43  62 CALM      30.12S
ALLENDALE      FAIR      52  45  76 CALM      30.10S

...SOUTHERN MIDLANDS AND PEE DEE...

CITY           SKY/WX    TMP DP  RH WIND       PRES   REMARKS
GEORGETOWN     NOT AVBL
KINGSTREE      NOT AVBL
ORANGEBURG     MOCLDY    55  42  61 E3        30.11S
BARNWELL       FAIR      54  45  71 CALM      30.12R
AIKEN          FAIR      52  43  71 CALM      30.13S
MANNING        NOT AVBL
COLUMBIA       PTCLDY    56  40  55 CALM      30.11R
SUMTER         PTCLDY    50  36  58 NE5       30.11R
FLORENCE       PTCLDY    48  36  63 CALM      30.13R
MYRTLE BEACH   CLEAR     52  39  62 CALM      30.16R
N MYRTLE BEACH PTCLDY    47  41  80 CALM      30.14R

$$

GAZ063-065-086>088-099>101-113>116-118-119-134>141-150-200000-
...SOUTHEAST GEORGIA...

CITY           SKY/WX    TMP DP  RH WIND       PRES   REMARKS
SAVANNAH ARPT  CLOUDY    57  43  59 CALM      30.10S
HUNTER AAF     CLOUDY    55  44  67 E3        30.08S
FORT STEWART   CLOUDY    55  48  76 CALM      30.08S
STATESBORO     MOCLDY    48  47  99 CALM      30.10S
SYLVANIA       MOCLDY    52  49  91 CALM      30.11S
CLAXTON        FAIR      52  48  87 CALM      30.10S

...CSRA...CENTRAL AND FAR SOUTHEAST GEORGIA...

CITY           SKY/WX    TMP DP  RH WIND       PRES   REMARKS
THOMSON        MOCLDY    54  46  75 CALM      30.14S
AUGUSTA-BUSH   MOCLDY    53  42  66 CALM      30.10R
AUGUSTA-DANIEL MOCLDY    59  39  47 S5        30.10R
SWAINSBORO     FAIR      54  48  82 CALM      30.10R
VIDALIA        MOCLDY    52  46  82 CALM      30.09S
EASTMAN        FAIR      53  46  79 CALM      30.11S
HAZLEHURST     FAIR      54  49  81 CALM      30.08S
ALMA           CLOUDY    57  40  52 NW3       30.08S
WAYCROSS       CLOUDY    56  46  69 CALM      30.09R
JESUP          FAIR      57  52  82 CALM      30.09S
BAXLEY         FAIR      55  45  67 CALM      30.08S
BRUNSWICK      MOCLDY    55  43  62 NE3       30.10F
SAINT SIMONS   MOCLDY    57  47  69 E6        30.10S

$$

SCZ027-028-034-036>038-045-046-048>050-GAZ119-141-200000-
...LAKE AND SUPPLEMENTAL COASTAL OBSERVATIONS...

STATION/POSITION TIME  TEMP    WIND        PRES    WAVE   SWELL
                       AIR SEA DIR/SP/G            HT/PER HT/PER/DIR
                 (UTC) (F)     (DEG/KT/KT) (MB)    (FT/S) (FT/S/D)
UPR LAKE MARION  NOT AVBL
WINYAH BAY       2300   51     330/  1     1020.0S
LAKE MURRAY      2200   55      CALM  /  1 1019.0R
ACE BASIN NERRS  2300   54     100/  1     1019.0S
FORT PULASKI     2300   54 57  100/  3/  3 1019.7F
SAPELO ISLAND    2300   56     110/  6     1019.0S

$$

ANZ835-935-AMZ111-154-330-350-352-354-370-450-454-472-200000-
...C-MAN AND BUOY OBSERVATIONS...

STATION/POSITION TIME  TEMP    WIND        PRES    WAVE   SWELL
                       AIR SEA DIR/SP/G            HT/PER HT/PER/DIR
                 (UTC) (F)     (DEG/KT/KT) (MB)    (FT/S) (FT/S/D)
BUOY 41004       2300   63 68   80/  4/  6 1019.5R   2/10   2/10
BUOY 41008       2300   57 58   80/  4/  4 1019.4S   1/10   2/100/10
FOLLY BEACH CMAN 2300   55      60/ 10/ 11 1020.6R
CAPERS NEARSHORE 2200   54      80/ 10/ 12   N/A
FRIPP NEARSHORE  NOT AVBL


STATION/POSITION TIME  TEMP    WIND        PRES    WAVE   SWELL
                       AIR SEA DIR/SP/G            HT/PER HT/PER/DIR
                 (UTC) (F)     (DEG/KT/KT) (MB)    (FT/S) (FT/S/D)
5E ST. MARYS GA  2300      61                N/A     1/10
FRYING PAN BUOY  2300   56 65   40/  6/ 10 1021.4R   2/ 9   2/ 80/ 9
BUOY 41025       2300   46                 1021.3R   3/ 8
CAPE LOOKOUT NC  2300   47      20/  8/  9 1021.5R
BUOY 41002       2243   67 72  350/  8/ 10 1019.4R   3/ 8   3/ 30/ 8
BUOY 41010       2300   71 76   10/  2/  4 1018.7R   2/11   2/ 90/11
ST AUGUSTINE FL  2300   62      40/  7/  7 1019.6R


$$



USA.gov is the U.S. government's official web portal to all federal, state and local government web resources and services.